sat.trackr.live / text

‹ back to catalog

BRO-18

NORAD 64550 · 2025-135Y

PAYLOAD ACTIVE UNKNOWN

§ Identity

Operator
Country
FR
Launch date
2025-06-23
Launch site
AFWTR
Launch vehicle
Mass (kg)
RCS (m²)

External: N2YO · Heavens-Above · Gunter

§ Orbital elements

Epoch: 2026-05-25T05:44:03.145056Z

Period
94.63 min
Inclination
97.4601°
Eccentricity
0.0001148
Mean motion
15.21784406 rev/d
Perigee alt
499.7 km
Apogee alt
501.2 km
Semi-major
6,878.6 km
B*
2.8776e-4
RAAN
260.4553°
Arg perigee
58.1325°
Mean anomaly
302.0022°
Rev number
5,138

§ Raw data

BRO-181 64550U 25135Y   26145.23892529  .00006460  00000+0  28776-3 0  99922 64550  97.4601 260.4553 0001148  58.1325 302.0022 15.21784406 51386

JSON: /api/v1/satellites/64550 · /tle

For live sub-satellite position, see the globe view (requires WebGL).

§ Visibility from observer

Set your observer location to see the next 7 days of passes ≥ 10°. The values pass through the URL so the page stays shareable.

No JS? Fill the form by hand. The geolocation button needs JavaScript.

§ Radio — SatNOGS DB

ModeDescriptionDownlinkUplink
BPSK Mode S - Transmitter 2.261 GHz
FSK AX.100 Mode 5 Mode U - Transmitter 401.520 MHz
FSK AX.100 Mode 5 Mode U - FSK4k8 - TLM (inactive) 401.735 MHz
FSK AX.100 Mode 5 Mode U - FSK9k6 - TLM (inactive) 401.735 MHz

4 transmitters · refreshed weekly from db.satnogs.org